Simultaneous Nadir Overpasses (SNOs) Predictions

Prediction of SNOs between METOP-B and TERRA Satellite Orbit:

Table of predicted SNOs for the next 14.0 days since TLE Epoch: 7/20/2019
Index Date (METOP-B) Time (METOP-B) Lat,Lon (METOP-B) SZA (METOP-B ) Date (TERRA) Time (TERRA) Lat,Lon (TERRA) SZA (TERRA ) Distance(km) Time Diff (sec)
1 07/20/2019 09:08:27 -81.31, -90.19 116.68 07/20/2019 09:09:05 -81.30, -90.11 116.66 1.46 38
2 07/20/2019 09:59:07 81.31, 77.54 63.38 07/20/2019 09:58:31 81.31, 77.65 63.37 1.76 36
3 07/23/2019 04:42:49 -81.31, -23.65 116.13 07/23/2019 04:43:20 -81.31, -23.51 116.09 2.33 31
4 07/23/2019 05:33:29 81.31, 144.08 63.93 07/23/2019 05:32:46 81.32, 144.22 63.93 2.46 43
5 07/26/2019 00:17:10 -81.31, 42.88 115.52 07/26/2019 00:17:35 -81.30, 42.72 115.54 2.85 25
6 07/26/2019 01:07:50 81.31,-149.41 64.53 07/26/2019 01:07:01 81.30,-149.57 64.48 2.93 49
7 07/28/2019 19:51:32 -81.31, 109.40 114.88 07/28/2019 19:51:50 -81.31, 109.35 114.88 0.79 18
8 07/28/2019 20:42:12 81.31, -82.90 65.18 07/28/2019 20:41:16 81.31, -82.96 65.14 0.91 56
9 07/31/2019 15:25:55 -81.31, 175.51 114.24 07/31/2019 15:26:06 -81.30, 175.62 114.23 1.89 11




NCC Satellite Simultaneous Nadir Overpasses (SNOs) Prediction Service
